Location: Unspecified
(0.0000°N, 0.0000°E)
Time: 16:41:03
(UTC+00:00)

Transit 4A - Pass Details

Date: 20 December 2018
Orbit: 862 x 983 km, 66.8° (Epoch: 17 June)

Event Time Altitude Azimuth Distance (km) Brightness Sun altitude
Rises 23:19:30 0° 168° (SSE) 3,503 - -64.8°
Reaches altitude 10° 23:23:06 10° 147° (SSE) 2,539 - -65.1°
Maximum altitude 23:26:29 16° 111° (ESE) 2,138 - -65.4°
Drops below altitude 10° 23:29:49 10° 75° (ENE) 2,504 - -65.6°
Sets 23:33:17 0° 54° (NE) 3,429 - -65.8°
